CAPE
1197 1236 1210 1739 1532 1329 1183 1106 1118 1244 1517 1633 1276 1356 1563 2056 2057 2221 2224 2095 1552 1369 1576 1367 1173 870 542 210 42 0 0 0 0 6 0 0 0 0 0 0 0 0 18
1351 1644 1470 1684 1963 1834 1548 1264 1206 1767 1766 1879 1586 1795 2056 2445 2563 2533 1812 1355 1351 1823 1234 599 391 950 592 212 9 0 0 0 0 1 0 0 0 0 0 0 0 0 0
1677 1812 1846 1726 1791 1992 1964 1800 1580 1461 1463 1454 1783 2035 2478 2738 2854 2550 1635 1029 1738 1269 785 288 159 271 676 49 0 0 0 0 0 0 0 0 0 0 0 0 0 0 0
1883 1872 1921 1865 1904 1911 1907 1964 1979 1910 1899 1825 1745 2111 2557 2647 2631 1669 962 1633 1222 770 339 108 103 324 515 0 0 0 0 0 0 0 0 0 0 0 0 0 0 0 0
1849 1901 1839 1849 1843 1916 1861 1969 2026 2000 2052 2076 2174 2210 2760 2681 1542 865 854 1552 729 467 109 12 15 405 49 0 0 0 0 0 0 0 0 0 0 0 0 0 0 0 0
1179 1653 1558 1555 1595 1833 1913 1967 2181 2111 2151 2391 2560 2645 1719 1210 60 236 657 932 704 290 40 0 0 0 0 0 0 0 0 0 0 0 0 0 0 0 0 0 0 0 0
2504 2431 1802 1260 1754 1762 1994 2125 2361 2364 2316 2460 2708 2961 1393 226 1 1 325 730 318 96 33 0 0 0 0 0 0 0 0 0 0 0 0 0 0 0 0 0 0 0 0
1146 2111 1919 1899 2126 1999 1986 2083 2245 2489 2616 2616 2699 2467 610 0 1 0 0 572 151 10 76 0 0 0 0 0 0 0 0 0 0 0 0 0 0 0 0 0 0 0 0
10 1108 1076 1150 2130 2237 2287 2378 2373 2363 2675 2897 3049 1299 256 0 0 0 10 543 49 7 0 0 0 0 0 0 0 0 0 0 0 0 0 0 0 0 0 0 0 0 0
22 426 856 1027 1638 2542 2017 2684 2707 2535 2621 2784 2669 1013 87 0 1 0 3 485 35 0 0 0 0 0 0 0 0 0 0 0 0 0 0 0 0 0 0 0 0 0 0
11 144 521 528 962 1750 1468 1975 2660 2545 2407 2337 1500 89 0 0 0 0 0 452 108 0 0 0 0 0 0 0 0 0 0 0 0 0 0 0 0 0 0 0 0 0 0
0 115 169 183 708 781 674 665 1381 927 3 93 133 17 7 3 3 3 0 0 228 20 0 0 0 0 0 0 0 0 0 0 0 0 0 0 0 0 0 0 0 0 0
0 46 57 126 266 38 0 138 2 0 0 0 0 2 2 2 1 1 1 0 0 9 0 0 0 0 0 0 0 0 0 0 0 0 0 0 0 0 0 0 0 0 0
5 47 14 53 103 79 0 0 0 0 0 0 0 0 0 0 0 0 0 0 0 0 0 0 0 0 0 0 0 0 0 0 0 0 0 0 0 0 0 0 0 0 0
46 145 137 43 193 1 1 1 0 0 0 0 0 0 0 0 0 0 0 0 0 0 0 0 0 0 0 0 0 0 0 0 0 0 0 0 0 0 0 0 0 0 0
7 44 169 180 82 1 0 0 0 0 0 0 0 0 0 0 0 0 0 0 0 0 0 0 0 0 0 0 0 0 0 0 0 0 0 0 0 0 0 0 0 0 0
42 63 87 60 148 1 1 0 1 0 0 0 1 0 0 1 0 2 1 2 1 0 0 0 0 0 0 0 0 0 0 0 0 0 0 0 0 0 0 0 0 0 0
28 37 67 77 45 3 1 0 0 0 0 0 0 1 2 1 1 1 1 1 1 0 0 0 0 0 0 0 0 0 1 0 0 0 0 0 0 0 0 0 0 0 0
198 114 59 57 29 31 0 0 1 2 0 0 0 0 0 0 0 0 0 0 0 0 0 0 0 0 0 0 0 0 0 0 0 0 0 0 0 0 0 1 0 0 0
234 160 111 65 64 39 33 0 1 0 0 0 0 0 0 0 0 0 0 0 0 0 0 0 0 0 0 0 0 0 0 0 0 0 0 0 0 0 0 0 0 0 0
365 275 270 53 54 0 12 11 0 0 0 0 0 0 0 0 0 0 0 0 0 0 0 0 0 0 0 0 0 0 0 0 0 0 0 0 0 0 0 0 0 0 0
321 199 173 127 37 0 0 0 0 0 0 0 2 0 0 0 0 0 0 0 0 0 0 0 0 0 0 0 0 0 0 0 0 0 0 0 0 0 0 0 0 0 0
227 132 96 45 46 37 0 0 0 0 0 0 0 0 2 0 0 0 0 0 0 0 0 0 0 0 0 0 0 0 0 0 0 0 0 0 0 0 0 0 0 0 0
1 1 9 10 83 31 1 1 0 0 0 0 0 0 0 0 0 0 0 0 0 0 0 0 0 0 0 0 0 0 0 0 0 0 0 0 0 0 0 0 0 0 0
0 0 0 0 0 0 0 0 0 0 0 0 0 0 0 0 0 0 0 0 0 0 0 0 0 0 0 0 0 0 0 0 0 0 0 0 0 0 0 0 0 0 0
0 0 0 0 0 0 0 0 4 0 0 0 0 0 0 0 0 0 0 0 0 0 0 0 0 0 0 0 0 0 0 0 0 0 0 0 0 0 0 0 0 0 0
CIN
-446 -438 -401 -351 -344 -330 -303 -268 -222 -182 -135 -126 -136 -131 -107 -78 -91 -89 -86 -88 -93 -102 -70 -73 -84 -110 -151 -206 -258 0 0 0 0 -1 0 0 0 0 0 0 0 0 -3
-446 -409 -420 -394 -339 -312 -313 -316 -281 -169 -150 -140 -135 -111 -98 -78 -75 -68 -113 -142 -126 -66 -101 -186 -230 -91 -138 -186 -146 0 0 0 0 -1 0 0 0 0 0 0 0 0 0
-443 -427 -412 -417 -389 -347 -324 -310 -295 -250 -197 -179 -138 -112 -81 -70 -59 -78 -151 -180 -105 -133 -170 -304 -330 -236 -103 -190 0 0 0 0 0 0 0 0 0 0 0 0 0 0 0
-411 -404 -423 -426 -387 -359 -367 -344 -310 -262 -203 -193 -187 -130 -96 -85 -88 -171 -216 -122 -144 -200 -325 -450 -406 -213 -127 0 0 0 0 0 0 0 0 0 0 0 0 0 0 0 0
-390 -391 -395 -388 -389 -343 -362 -356 -334 -297 -252 -210 -174 -146 -91 -100 -216 -269 -235 -126 -225 -242 -408 -514 -269 -186 -338 0 0 0 0 0 0 0 0 0 0 0 0 0 0 0 0
-451 -358 -353 -344 -351 -345 -340 -346 -314 -302 -286 -223 -177 -114 -218 -283 -611 -450 -278 -203 -211 -274 -408 0 0 0 0 0 0 0 0 0 0 0 0 0 0 0 0 0 0 0 0
-180 -202 -270 -338 -279 -296 -282 -282 -265 -261 -259 -234 -170 -104 -288 -528 0 0 -421 -240 -314 -385 -369 0 0 0 0 0 0 0 0 0 0 0 0 0 0 0 0 0 0 0 0
-303 -159 -190 -215 -185 -206 -242 -250 -231 -209 -209 -183 -173 -180 -463 0 0 0 0 -273 -360 -393 -367 0 0 0 0 0 0 0 0 0 0 0 0 0 0 0 0 0 0 0 0
-709 -227 -233 -242 -99 -127 -148 -144 -171 -160 -151 -123 -125 -329 -588 0 0 0 -445 -267 -437 -206 0 0 0 0 0 0 0 0 0 0 0 0 0 0 0 0 0 0 0 0 0
-598 -285 -172 -148 -91 -26 -89 -58 -72 -78 -90 -118 -118 -370 -655 0 0 0 -450 -285 -416 0 0 0 0 0 0 0 0 0 0 0 0 0 0 0 0 0 0 0 0 0 0
-554 -320 -181 -181 -117 -57 -120 -103 -56 -46 -56 -55 -140 -579 0 0 0 0 0 -241 -345 0 0 0 0 0 0 0 0 0 0 0 0 0 0 0 0 0 0 0 0 0 0
0 -296 -248 -261 -115 -134 -197 -294 -172 -254 -252 -390 -271 -90 0 0 0 0 0 0 -249 -281 0 0 0 0 0 0 0 0 0 0 0 0 0 0 0 0 0 0 0 0 0
0 -313 -300 -224 -188 -456 -45 -347 -68 0 0 0 0 0 0 0 0 0 0 0 0 -402 0 0 0 0 0 0 0 0 0 0 0 0 0 0 0 0 0 0 0 0 0
-14 -251 -279 -205 -242 -296 0 0 0 0 0 0 0 0 0 0 0 0 0 0 0 0 0 0 0 0 0 0 0 0 0 0 0 0 0 0 0 0 0 0 0 0 0
-60 -242 -197 -175 -90 0 0 0 0 0 0 0 0 0 0 0 0 0 0 0 0 0 0 0 0 0 0 0 0 0 0 0 0 0 0 0 0 0 0 0 0 0 0
-89 -79 -170 -159 -175 0 0 0 0 0 0 0 0 0 0 0 0 0 0 0 0 0 0 0 0 0 0 0 0 0 0 0 0 0 0 0 0 0 0 0 0 0 0
-82 -246 -226 -291 -130 0 0 0 0 0 0 0 0 0 0 0 0 0 0 0 0 0 0 0 0 0 0 0 0 0 0 0 0 0 0 0 0 0 0 0 0 0 0
-128 -135 -143 -122 -179 -33 0 0 0 0 0 0 0 0 0 0 0 0 0 0 0 0 0 0 0 0 0 0 0 0 0 0 0 0 0 0 0 0 0 0 0 0 0
-71 -99 -118 -76 -96 -139 0 0 0 0 0 0 0 0 0 0 0 0 0 0 0 0 0 0 0 0 0 0 0 0 0 0 0 0 0 0 0 0 0 -40 0 0 0
-80 -87 -97 -93 -90 -119 -152 0 0 0 0 0 0 0 0 0 0 0 0 0 0 0 0 0 0 0 0 0 0 0 0 0 0 0 0 0 0 0 0 0 0 0 0
-85 -103 -81 -113 -98 0 -210 -226 0 0 0 0 0 0 0 0 0 0 0 0 0 0 0 0 0 0 0 0 0 0 0 0 0 0 0 0 0 0 0 0 0 0 0
-102 -116 -72 -36 -73 0 0 0 0 0 0 0 0 0 0 0 0 0 0 0 0 0 0 0 0 0 0 0 0 0 0 0 0 0 0 0 0 0 0 0 0 0 0
-103 -122 -103 -83 -67 -66 0 0 0 0 0 0 0 0 0 0 0 0 0 0 0 0 0 0 0 0 0 0 0 0 0 0 0 0 0 0 0 0 0 0 0 0 0
-44 -14 -185 -133 -39 -83 0 0 0 0 0 0 0 0 0 0 0 0 0 0 0 0 0 0 0 0 0 0 0 0 0 0 0 0 0 0 0 0 0 0 0 0 0
0 0 0 0 0 0 0 0 0 0 0 0 0 0 0 0 0 0 0 0 0 0 0 0 0 0 0 0 0 0 0 0 0 0 0 0 0 0 0 0 0 0 0
0 0 0 0 0 0 0 0 0 0 0 0 0 0 0 0 0 0 0 0 0 0 0 0 0 0 0 0 0 0 0 0 0 0 0 0 0 0 0 0 0 0 0
Wind_Speed
14 13 12 11 10 8 8 7 7 6 6 6 6 5 5 4 2 3 2 2 2 3 3 3 5 1 2 2 3 4 3 3 6 3 2 3 4 4 4 5 6 5 5
13 11 13 10 10 10 9 8 7 7 5 5 5 5 4 4 4 4 2 2 2 2 3 4 4 1 3 3 3 4 4 3 8 9 2 2 3 2 3 5 4 4 4
11 11 9 9 9 11 10 9 7 7 7 6 6 6 6 6 5 2 4 3 3 4 4 3 2 1 2 3 4 5 3 4 5 6 4 1 2 1 3 4 4 3 1
7 10 11 11 11 11 9 8 8 7 7 7 7 7 7 6 4 6 5 4 4 5 4 3 1 2 5 5 4 5 5 6 5 5 4 2 2 2 3 3 2 2 1
8 7 10 9 10 8 7 7 8 8 8 8 7 6 5 5 4 6 5 5 6 5 4 3 3 3 8 7 5 5 6 4 5 4 3 2 1 2 4 2 2 0 1
1 4 5 4 5 7 7 8 7 9 9 8 7 6 6 4 6 6 7 5 6 6 4 3 3 5 7 9 11 8 6 6 4 4 3 4 3 3 3 3 3 1 0
11 9 7 7 6 7 7 7 9 10 8 10 7 7 8 6 10 8 8 5 6 6 5 4 2 3 6 6 9 10 8 7 6 6 6 5 5 6 5 4 4 3 3
11 10 10 11 8 8 7 10 11 8 11 10 9 9 7 7 12 9 10 6 5 6 7 6 5 4 5 7 7 6 4 2 4 4 7 7 6 7 8 6 6 4 2
10 11 12 11 11 11 8 11 12 9 9 9 9 9 9 7 9 7 7 5 5 5 4 6 6 6 7 8 7 6 3 2 3 8 5 10 9 11 8 6 3 3 2
7 7 7 10 12 11 10 13 12 10 11 9 9 9 11 11 11 9 6 5 5 4 2 2 7 8 10 8 6 6 5 4 2 4 4 5 7 8 13 6 5 4 3
5 6 6 7 11 11 12 10 9 7 7 5 4 7 11 11 7 7 6 5 6 4 4 3 3 7 10 8 7 6 6 4 1 5 5 4 4 4 3 4 5 5 3
5 5 6 7 7 8 10 8 5 8 15 11 5 5 8 12 11 7 7 1 5 6 5 4 3 7 9 8 7 9 8 5 3 4 4 3 3 3 3 4 6 4 4
4 5 5 6 5 5 5 6 3 8 8 6 7 11 7 15 12 9 4 4 4 4 4 6 8 8 7 3 7 9 9 4 3 2 4 3 3 4 2 1 2 2 2
7 6 5 5 7 4 3 3 1 1 4 6 7 8 13 13 9 7 6 4 7 6 8 6 5 5 1 2 2 3 4 4 4 4 4 3 3 3 3 2 2 2 2
7 7 6 4 5 2 0 2 5 5 3 4 7 9 11 14 15 15 12 9 9 11 9 5 3 3 2 1 2 3 3 3 3 3 4 4 4 4 3 3 2 2 2
6 6 5 4 4 3 3 3 4 5 7 11 8 5 7 5 12 18 17 15 15 18 5 5 5 4 5 4 4 4 2 2 3 4 4 6 7 6 4 3 2 3 3
7 7 5 5 4 4 4 4 4 3 5 10 10 5 4 9 13 12 12 12 13 11 5 4 5 5 4 5 4 2 4 1 1 2 2 4 4 4 5 3 3 3 4
7 12 6 5 4 4 5 6 4 4 3 1 8 7 11 11 9 11 17 13 6 4 6 6 5 5 4 4 3 3 2 3 1 3 3 3 3 3 3 3 4 3 3
6 5 5 5 4 7 6 6 6 5 2 2 1 7 5 14 13 9 5 2 5 5 7 7 6 6 5 5 4 3 3 3 2 3 3 3 3 2 2 3 2 4 3
6 9 7 5 4 5 6 7 6 5 5 5 3 3 3 1 4 4 3 3 4 4 4 5 5 7 6 4 4 4 4 4 3 3 3 3 3 2 2 2 2 2 2
5 5 7 4 4 5 6 7 7 7 6 5 5 4 8 2 3 3 4 3 6 6 7 5 4 5 6 5 4 4 3 4 4 4 3 4 3 3 3 2 2 1 1
4 5 4 5 5 5 7 7 6 7 7 8 6 4 6 2 3 4 3 4 4 5 6 8 5 4 5 5 5 5 4 5 4 3 4 3 4 3 2 1 2 2 2
5 5 5 6 6 6 7 6 6 7 7 8 7 7 4 3 6 5 5 5 7 8 7 7 7 6 5 5 4 5 5 5 4 3 4 4 4 3 3 3 3 2 2
5 4 5 6 6 6 7 8 7 8 8 7 8 7 7 7 7 7 5 5 7 8 7 7 6 7 7 5 5 5 5 4 3 4 6 4 3 2 2 1 1 1 1
3 2 2 3 3 5 7 8 8 8 7 8 7 7 8 8 9 8 7 7 6 7 7 5 5 8 8 8 6 7 7 7 5 4 4 5 4 3 2 2 2 1 1
4 3 3 3 3 3 8 9 9 10 9 8 8 7 7 7 7 9 8 8 8 7 7 4 6 9 9 6 6 9 6 7 5 4 3 4 4 1 1 1 2 2 3
Wind_Direction
204 200 204 204 201 200 200 205 218 232 244 197 195 200 201 218 253 260 263 42 38 339 10 32 18 111 191 193 90 95 88 91 121 91 79 87 59 89 44 52 62 69 98
201 207 212 202 198 204 211 207 199 215 225 223 225 212 207 230 238 221 259 151 108 50 79 50 351 315 214 106 97 84 105 109 130 128 123 82 85 81 75 73 67 62 79
193 193 203 206 202 210 208 205 198 207 218 223 225 222 214 228 233 191 177 163 133 117 127 91 333 312 161 117 98 111 103 109 120 130 114 84 90 109 74 54 72 61 72
202 197 195 200 208 216 210 203 196 198 209 220 223 219 214 223 168 150 165 167 126 129 127 102 48 259 131 129 120 129 119 112 107 113 101 99 100 57 77 106 60 30 40
183 201 219 212 201 206 206 206 205 193 207 211 221 220 208 172 171 182 165 162 131 135 120 96 44 54 119 124 137 132 126 110 119 122 111 108 122 122 142 159 119 217 18
290 241 219 214 225 214 210 209 204 214 206 199 213 202 160 174 163 200 163 149 141 135 140 118 90 84 108 126 135 127 142 139 139 132 150 156 180 174 144 153 133 161 144
30 18 342 294 254 216 208 203 214 216 208 212 195 182 182 170 191 189 170 148 137 145 160 141 100 90 107 121 117 120 124 135 167 163 157 180 166 189 150 150 162 180 213
7 11 6 2 331 275 240 219 222 212 209 209 205 191 164 177 188 182 180 145 147 161 155 144 141 136 139 136 125 121 133 159 226 205 180 173 190 172 172 173 170 150 42
11 360 356 350 332 324 253 240 234 216 212 205 201 174 174 154 181 181 165 146 148 149 135 143 145 141 162 147 133 138 147 259 286 267 207 162 169 167 143 121 147 122 87
354 343 338 337 336 325 316 272 244 226 224 208 195 187 163 156 180 182 177 139 137 132 99 142 158 151 168 175 159 152 166 223 188 100 89 101 144 164 161 159 151 153 127
323 332 333 336 329 330 317 302 270 233 245 277 188 168 161 145 148 157 173 147 146 154 151 141 153 164 163 187 182 173 190 171 152 118 106 103 108 134 156 158 167 149 168
322 325 323 324 329 324 320 324 351 61 80 60 57 18 354 107 57 21 46 10 150 158 163 172 174 192 184 192 196 194 173 141 136 117 116 134 143 183 211 174 183 212 206
304 302 305 311 313 317 339 344 22 104 117 126 124 128 51 301 58 338 334 32 140 137 155 160 162 191 206 183 235 183 153 144 153 160 166 191 187 189 152 136 92 65 27
289 276 281 299 311 287 331 336 4 184 163 167 155 135 133 139 185 213 209 159 112 104 118 120 150 146 201 138 98 139 150 172 180 201 204 200 138 150 170 175 163 158 96
268 261 262 263 277 254 234 308 267 229 233 199 193 178 177 185 182 197 170 177 160 155 135 121 135 126 180 216 194 184 189 181 216 240 223 202 189 171 186 180 161 147 155
264 259 233 242 231 221 201 240 310 360 302 253 271 245 231 16 158 176 173 158 155 144 115 139 153 163 172 187 197 173 169 218 214 210 219 199 188 188 176 163 163 168 179
247 250 242 225 221 205 199 214 248 291 64 4 351 104 90 146 121 128 123 118 138 124 127 147 158 159 161 159 177 161 153 143 318 104 151 163 153 143 151 187 179 182 193
245 240 227 218 222 199 202 205 196 228 240 231 19 34 98 99 104 146 142 125 139 117 149 153 169 148 147 139 159 152 138 112 75 63 48 46 92 139 151 186 196 201 213
247 232 223 211 232 211 191 205 197 207 183 88 88 74 61 111 112 102 41 77 180 159 148 157 150 140 148 142 136 130 127 115 126 113 80 69 46 74 83 66 107 167 169
247 240 218 199 215 241 199 206 181 164 155 152 153 132 147 207 158 159 143 127 124 130 134 147 143 132 135 133 125 136 135 132 120 102 104 89 65 43 91 110 83 37 25
231 227 214 186 210 221 222 203 180 163 166 172 179 170 179 157 132 140 162 177 183 155 138 146 140 139 130 131 133 144 123 111 111 103 97 99 98 78 11 27 43 40 317
215 217 206 206 217 224 217 208 173 171 170 161 155 124 136 94 126 138 137 120 105 118 128 124 121 128 114 117 123 115 110 106 81 98 99 81 73 73 92 358 46 22 341
204 216 224 226 227 207 184 189 168 152 157 153 156 151 169 145 126 108 107 96 100 98 98 104 113 103 96 100 100 117 124 114 120 116 106 86 76 76 64 68 30 15 357
204 210 222 237 226 203 182 170 159 150 146 143 137 137 136 130 119 103 101 95 90 90 92 93 102 112 97 99 101 99 103 110 104 96 104 104 97 86 80 84 36 2 291
179 190 196 205 182 161 143 131 132 128 123 122 123 128 125 121 117 112 113 101 94 100 93 103 107 113 115 119 115 109 105 96 98 104 94 96 92 67 51 14 14 332 311
79 76 76 80 79 116 126 127 129 122 118 112 110 109 115 117 109 113 117 122 125 107 107 105 122 117 123 128 132 127 127 129 117 92 105 113 112 84 65 6 326 316 312